Location: Gajan
(43.0218°N, 1.1244°E)
Time: 15:13:27
(UTC+00:00)

IRS-1A Rocket - Pass Details

Date: 22 April 2021
Orbit: 852 x 930 km, 99.2° (Epoch: 13 May)

Event Time Altitude Azimuth Distance (km) Brightness Sun altitude
Exits shadow 19:43:33 - 154° (SSE) 2,800 6.4 -10.4°
Reaches altitude 10° 19:44:18 10° 153° (SSE) 2,506 6.2 -10.6°
Maximum altitude 19:49:49 68° 72° (ENE) 948 4.3 -11.4°
Drops below altitude 10° 19:55:29 10° 351° (N) 2,572 7.3 -12.3°
Sets 19:57:56 0° 349° (NNW) 3,528 8.1 -12.7°
